Location: Lancaster
(54.0470°N, 2.8020°W)
Time: 14:38:50
(UTC+00:00)

COSMOS 2428 - Visible Passes

Search period start: 10 December 2016 00:00
Search period end: 20 December 2016 00:00
Orbit: 844 x 858 km, 70.9° (Epoch: 10 December)

Date Brightness Start Highest point End Pass type
(mag) Time Alt. Az. Time Alt. Az. Time Alt. Az.
10 Dec 4.7 04:12:58 18° NNE 04:12:58 18° NNE 04:14:43 10° NNE visible
10 Dec 4.4 05:55:00 16° NNW 05:55:39 16° NNW 05:59:10 10° NNE visible
11 Dec 4.9 04:01:15 17° NNE 04:01:15 17° NNE 04:02:38 10° NNE visible
11 Dec 4.5 05:43:16 16° NNW 05:43:33 16° NNW 05:47:05 10° NNE visible
11 Dec 4.6 07:26:44 10° NNW 07:30:17 16° NNE 07:33:48 10° NE visible
12 Dec 5.1 03:49:30 15° NNE 03:49:30 15° NNE 03:50:32 10° NNE visible
12 Dec 4.5 05:31:31 16° NNW 05:31:31 16° NNW 05:34:59 10° NNE visible
12 Dec 4.6 07:14:39 10° NNW 07:18:12 16° NNE 07:21:43 10° NE visible
13 Dec 5.2 03:37:45 13° NNE 03:37:45 13° NNE 03:38:26 10° NNE visible
13 Dec 4.6 05:19:46 16° N 05:19:46 16° N 05:22:54 10° NNE visible
13 Dec 4.6 07:02:34 10° NNW 07:06:06 16° NNE 07:09:38 10° NE visible
14 Dec 5.4 03:25:59 12° NNE 03:25:59 12° NNE 03:26:21 10° NNE visible
14 Dec 4.7 05:08:00 16° N 05:08:00 16° N 05:10:48 10° NNE visible
14 Dec 4.7 06:50:29 10° NNW 06:54:01 16° NNE 06:57:32 10° NE visible
15 Dec 5.5 03:14:12 10° NNE 03:14:12 10° NNE 03:14:15 10° NNE visible
15 Dec 4.7 04:56:13 16° N 04:56:13 16° N 04:58:43 10° NNE visible
15 Dec 4.7 06:38:24 10° NNW 06:41:55 16° NNE 06:45:27 10° NE visible
16 Dec 4.8 04:44:26 15° N 04:44:26 15° N 04:46:37 10° NNE visible
16 Dec 4.7 06:26:27 10° NNW 06:29:51 16° NNE 06:33:22 10° NE visible
17 Dec 4.9 04:32:39 15° N 04:32:39 15° N 04:34:32 10° NNE visible
17 Dec 4.7 06:14:40 11° NNW 06:17:45 16° NNE 06:21:17 10° NE visible
18 Dec 5.0 04:20:51 14° N 04:20:51 14° N 04:22:26 10° NNE visible
18 Dec 4.7 06:02:52 12° NNW 06:05:40 16° NNE 06:09:11 10° NE visible
19 Dec 5.1 04:09:04 13° NNE 04:09:04 13° NNE 04:10:21 10° NNE visible
19 Dec 4.7 05:51:05 13° NNW 05:53:35 16° NNE 05:57:07 10° NE visible
19 Dec 3.9 07:34:28 10° NNW 07:39:41 34° NE 07:44:51 10° ESE visible
